« Back
NWS Peachtree City, Ga » Text Product » GA Regional Weather Roundup


Printer-friendly Version
Current Version              Previous Versions:   1  2  3  4  5  6  7  8  9  

Regional Weather Roundup

767
ASUS42 KFFC 200103
RWRGA
WEATHER ROUNDUP FOR GEORGIA
NATIONAL WEATHER SERVICE PEACHTREE CITY GA
900 PM EDT SUN OCT 19 2014

NOTE: "FAIR" INDICATES FEW OR NO CLOUDS BELOW 12,000 FEET WITH NO
SIGNIFICANT WEATHER AND/OR OBSTRUCTIONS TO VISIBILITY.

* = USE WITH CAUTION. THE STATIONS MARKED WITH AN ASTERISK MAY NOT
REPORT WEATHER SUCH AS PRECIPITATION, FOG, OR THUNDER AND ARE NOT
QUALITY CONTROLLED BY NWS.

THE REMARK "TC" DENOTES TEMPERATURE READING IN DEGREES CELSIUS.

GAZ001>058-200200-
NORTH GEORGIA

CITY           SKY/WX    TMP DP  RH WIND       PRES   REMARKS
ATLANTA        PTCLDY    62  48  60 CALM      30.10R
ATHENS         PTCLDY    56  49  77 CALM      30.10S
CHAMBLEE       PTCLDY    54  49  83 CALM      30.10S
PEACHTREE CITY CLEAR     53  51  93 CALM      30.10S
ROME           CLEAR     54  51  90 NE3       30.10R
WEST ATLANTA   CLEAR     56  51  84 CALM      30.10R
GAINESVILLE    MOCLDY    60  47  61 S5        30.12R
CARTERSVILLE   CLEAR     51  49  92 CALM      30.11R


CITY           SKY/WX    TMP DP  RH WIND       PRES   REMARKS
DALTON*        MOCLDY    52  52 100 CALM      30.10S
LAWRENCEVILLE* CLEAR     55  46  71 CALM      30.10R
MARIETTA       PTCLDY    56  51  83 W2        30.10S
$$

GAZ059>098-102>109-200200-
CENTRAL GEORGIA

CITY           SKY/WX    TMP DP  RH WIND       PRES   REMARKS
AUGUSTA-BUSH   CLEAR     53  47  79 CALM      30.10R
AUGUSTA-DANIEL CLEAR     64  48  56 CALM      30.11R
COLUMBUS       CLEAR     60  52  74 CALM      30.08R
MACON          CLEAR     54  52  93 CALM      30.09S
ROBINS AFB     CLEAR     56  53  91 NE1       30.09R


CITY           SKY/WX    TMP DP  RH WIND       PRES   REMARKS
LAGRANGE*      CLEAR     56  54  93 CALM      30.09S
SYLVANIA*      CLEAR     60  58  92 CALM      30.12R
MILLEDGEVILLE* CLEAR     55  54  94 CALM      30.10S
$$

GAZ099>101-110>166-200200-
SOUTH GEORGIA

CITY           SKY/WX    TMP DP  RH WIND       PRES   REMARKS
SAVANNAH       PTCLDY    59  51  75 CALM      30.11R
VALDOSTA       CLEAR     58  49  72 CALM      30.07S
ALMA           CLEAR     55  51  86 CALM      30.09R
ST SIMONS      CLEAR     63  53  70 NE5       30.10R
FT STEWART     CLEAR     56  52  86 CALM      30.09S
ALBANY         CLEAR     58  54  86 CALM      30.10R
HUNTER AFB     CLEAR     59  53  81 SW1       30.09R
MOODY AFB      CLEAR     58  52  81 CALM      30.08R
BRUNSWICK      CLEAR     57  54  88 CALM      30.11R


CITY           SKY/WX    TMP DP  RH WIND       PRES   REMARKS
BAINBRIDGE*    CLEAR     63  54  72 CALM      30.08R
MOULTRIE*      CLEAR     61  55  82 CALM      30.08S
VIDALIA*       CLEAR     59  54  82 CALM      30.10R
WAYCROSS*      CLEAR     64  58  80 SE3       30.10R
DOUGLAS*       CLEAR     61  52  72 CALM      30.10S
$$



USA.gov is the U.S. government's official web portal to all federal, state and local government web resources and services.